Weather History for TDPD - November, 2013

Change the Weather History Date:

Saturday, November 16, 2013

  Actual Average Record
Temperature  
Mean Temperature 80 °F -  
Max Temperature 86 °F 82 °F 89 °F (2003)
Min Temperature 73 °F 73 °F 71 °F (2006)
Cooling Degree Days 14    
Growing Degree Days 30 (Base 50)    
Moisture  
Dew Point 75 °F    
Average Humidity 85    
Maximum Humidity 100    
Minimum Humidity 66    
Precipitation  
Precipitation 0.16 in 0.40 in - ()
Sea Level Pressure  
Sea Level Pressure 29.90 in    
Wind  
Wind Speed 6 mph ()    
Max Wind Speed 25 mph    
Max Gust Speed -    
Visibility 7.8 miles    
Events Rain    
Averages and records for this station are not official NWS values.
T = Trace of Precipitation, MM = Missing Value Source: Averaged Metar Reports

Daily Weather History Graph

Daily Weather History Graph

Search for Another Location

Airport or City:

Trip Planner

Search our weather history database for the weather conditions in past years. The results will help you decide how hot, cold, wet, or windy it might be!

Date:

Astronomy

Nov. 16, 2013 Rise Set
Actual Time 6:08 AM AST 5:31 PM AST
Civil Twilight 5:45 AM AST 5:54 PM AST
Nautical Twilight 5:19 AM AST 6:20 PM AST
Astronomical Twilight 4:53 AM AST 6:46 PM AST
Moon 4:57 PM AST (11/16) 5:08 AM AST (11/16)
Length of Visible Light 12h 09m
Length of Day
11h 23m
Waxing Gibbous, 99% of the Moon is Illuminated
Nov 16
Waxing Gibbous
Nov 17
Full
Nov 25
Last Quarter
Dec 2
New
Dec 9
First Quarter

Hourly Weather History & Observations

Time (AST) Temp. Heat Index Dew Point Humidity Pressure Visibility Wind Dir Wind Speed Gust Speed Precip Events Conditions
6:00 AM 73.4 °F - 73.4 °F 100% 29.89 in 6.2 mi West 5.8 mph - N/A   Mostly Cloudy
7:00 AM 75.2 °F - 73.4 °F 94% 29.89 in 6.2 mi West 6.9 mph - N/A   Mostly Cloudy
8:00 AM 77 °F - 75 °F 91% 29.94 in 12 mi West 8.9 mph - - Rain Light Rain Showers
8:00 AM 77.0 °F - 75.2 °F 94% 29.92 in 6.2 mi West 4.6 mph - N/A Rain Light Rain Showers
9:00 AM 82.4 °F 90.9 °F 77.0 °F 84% 29.95 in 6.2 mi ENE 2.3 mph - N/A   Mostly Cloudy
10:00 AM 86.0 °F 96.9 °F 77.0 °F 74% 29.95 in 6.2 mi East 3.5 mph - N/A   Scattered Clouds
11:00 AM 84 °F - 75 °F 67% 29.94 in 17 mi East 11.2 mph - -   Scattered Clouds
11:00 AM 84.2 °F 92.3 °F 75.2 °F 74% 29.92 in 6.2 mi East 5.8 mph - N/A   Partly Cloudy
12:00 PM 86.0 °F 93.4 °F 73.4 °F 66% 29.92 in 6.2 mi East 5.8 mph - N/A   Scattered Clouds
1:00 PM 86.0 °F 93.4 °F 73.4 °F 66% 29.89 in 6.2 mi ENE 4.6 mph - N/A   Mostly Cloudy
2:00 PM 78 °F - 74 °F 86% 29.87 in 5 mi East 24.6 mph - - Rain Light Rain Showers
2:00 PM 78.8 °F - 75.2 °F 89% 29.86 in 5.0 mi East 12.7 mph - N/A Rain Light Rain Showers
3:00 PM 78.8 °F - 77.0 °F 94% 29.86 in 6.2 mi West 6.9 mph - N/A   Partly Cloudy
4:00 PM 82.4 °F 90.9 °F 77.0 °F 84% 29.86 in 6.2 mi West 2.3 mph - N/A   Partly Cloudy
5:00 PM 79 °F - 76 °F 86% 29.86 in 17 mi WSW 4.5 mph - -   Partly Cloudy
5:00 PM 78.8 °F - 75.2 °F 89% 29.86 in 6.2 mi WSW 2.3 mph - N/A   Partly Cloudy
6:00 PM 77.0 °F - 73.4 °F 89% 29.86 in 6.2 mi West 5.8 mph - N/A   Partly Cloudy
7:00 PM 77.0 °F - 73.4 °F 89% 29.89 in 6.2 mi West 5.8 mph - N/A   Mostly Cloudy
8:00 PM 76 °F - 74 °F 92% 29.89 in 17 mi West 15.7 mph - -   Partly Cloudy
8:00 PM 77.0 °F - 73.4 °F 89% 29.89 in 6.2 mi West 8.1 mph - N/A   Mostly Cloudy
9:00 PM 77.0 °F - 73.4 °F 89% 29.89 in 6.2 mi West 8.1 mph - N/A   Partly Cloudy
10:00 PM 75.2 °F - 73.4 °F 94% 29.89 in 6.2 mi West 6.9 mph - N/A   Mostly Cloudy